Wind_Speed
7 4 5 7 11 14 17 19 20 20 18 18 19 21 24 26 27 28 28 29 27 29
4 3 6 9 13 16 18 20 19 18 17 19 21 24 26 28 29 29 29 27 30 31
2 5 8 12 16 18 19 18 16 16 18 21 24 27 29 30 30 29 27 29 34 33
2 6 10 14 17 18 16 15 16 19 21 24 27 29 30 30 30 29 29 34 35 34
4 8 11 15 16 16 15 16 18 21 24 27 29 30 30 31 30 28 34 40 37 36
6 10 13 15 15 15 15 18 21 24 27 29 30 30 30 30 29 33 40 39 36 36
8 12 14 15 14 15 18 21 23 27 29 30 30 30 31 28 35 37 40 38 35 31
10 13 14 14 15 17 20 23 27 29 29 29 30 31 28 31 33 37 40 36 31 32
11 13 14 15 17 20 23 26 28 29 28 29 31 33 28 27 31 35 36 35 35 34
11 12 14 17 20 23 26 28 28 29 30 31 33 30 27 27 30 33 37 34 36 37
11 12 15 18 22 25 27 27 30 31 32 32 32 28 28 27 30 35 36 36 35 35
11 14 17 21 25 26 27 29 31 32 32 32 30 30 27 27 32 37 37 35 33 37
12 16 20 24 25 27 28 30 31 32 31 31 33 29 26 27 32 34 37 38 43 39
14 18 22 23 25 28 28 30 31 33 33 33 30 29 27 28 29 33 38 43 46 43
Wind_Direction
124 93 44 12 354 344 337 333 330 330 333 334 333 331 328 326 326 324 321 317 318 313
106 44 9 357 348 341 334 327 328 331 334 333 331 329 328 327 325 322 319 318 314 312
58 14 356 349 345 340 334 330 331 334 334 333 331 328 325 323 321 320 318 313 314 312
4 351 348 347 345 340 336 335 335 334 334 331 328 325 322 322 321 320 314 314 315 309
341 345 343 341 341 340 338 337 334 333 331 328 325 323 323 324 322 316 310 314 315 311
336 339 340 339 338 339 337 336 333 331 329 328 326 325 325 323 315 307 310 316 316 314
336 339 337 335 339 339 336 334 332 331 330 327 326 324 325 315 309 313 314 318 318 317
338 338 335 339 341 338 336 335 333 329 328 328 324 322 317 313 313 311 313 320 324 318
337 338 343 343 340 338 337 333 330 329 327 324 321 317 316 314 311 308 318 325 318 317
339 346 345 342 339 335 332 331 329 328 328 323 322 323 316 313 311 312 319 318 319 317
346 344 341 337 334 333 331 331 330 330 328 326 327 322 317 317 313 316 316 317 316 314
343 340 337 336 335 333 331 332 330 328 329 328 326 322 321 319 316 316 316 316 315 315
340 339 339 336 334 335 332 328 328 328 329 330 324 328 322 320 318 318 319 318 320 323
342 340 335 333 336 332 329 328 330 331 331 327 327 322 321 324 322 322 319 322 323 322
Height
1481 1482 1482 1482 1482 1481 1479 1477 1474 1472 1470 1467 1465 1462 1459 1457 1453 1450 1446 1443 1439 1436
1480 1481 1481 1481 1480 1478 1477 1474 1471 1469 1467 1465 1462 1459 1456 1452 1448 1445 1441 1437 1434 1430
1479 1479 1479 1479 1478 1476 1473 1471 1469 1467 1464 1462 1459 1455 1451 1448 1444 1440 1436 1432 1428 1424
1477 1477 1477 1477 1475 1473 1470 1468 1466 1464 1461 1458 1455 1451 1446 1442 1438 1434 1430 1426 1421 1417
1476 1476 1475 1474 1472 1470 1468 1466 1463 1461 1458 1455 1451 1446 1441 1437 1433 1429 1424 1420 1415 1410
1474 1474 1473 1471 1469 1467 1465 1463 1460 1457 1454 1450 1446 1441 1437 1433 1429 1424 1420 1414 1409 1403
1473 1472 1471 1469 1467 1465 1463 1460 1457 1454 1450 1446 1441 1437 1433 1429 1424 1418 1413 1408 1404 1399
1470 1470 1468 1466 1464 1462 1460 1457 1453 1450 1446 1442 1438 1433 1429 1424 1419 1413 1407 1403 1398 1394
1468 1467 1465 1463 1461 1459 1457 1453 1450 1446 1442 1438 1434 1430 1425 1421 1414 1408 1402 1396 1392 1388
1466 1464 1462 1460 1458 1456 1453 1449 1445 1441 1437 1433 1429 1424 1420 1415 1409 1403 1397 1392 1386 1380
1462 1461 1460 1458 1456 1452 1448 1445 1440 1436 1432 1428 1423 1419 1414 1409 1404 1398 1392 1387 1382 1376
1460 1459 1457 1455 1451 1448 1444 1440 1436 1432 1427 1423 1418 1414 1410 1406 1399 1392 1386 1381 1376 1371
1457 1456 1453 1451 1447 1444 1441 1437 1432 1427 1423 1418 1413 1409 1406 1402 1395 1388 1381 1374 1367 1362
1454 1452 1450 1447 1444 1441 1437 1432 1427 1422 1417 1413 1409 1405 1401 1396 1390 1384 1375 1367 1359 1354